RH
79 76 71 69 69 71 76 79 79 76 72 71 75 80 85 89 92 93 92 91 91 90 89 87 85 84 82 81 83 85 86 86 87 89 93 90 87 85 83 83 84 83 80 70 64 63 68 75 78 75 62 61 61 62 63 65 67 68 68 69 73 77 81 76 72 72 79 89 91 90 89 87 85 84 84 82 79 75 70 63 63 66 70 72 76 81 85 87 88 88 89 90 92 94 97 97 94 90 84 81 81 81 80
77 74 69 69 71 76 83 87 86 82 77 74 75 79 83 87 90 93 92 90 89 89 88 84 81 80 81 82 84 86 87 88 90 93 96 94 91 89 87 87 86 84 77 69 67 69 70 77 78 73 63 61 62 63 64 66 67 67 68 71 77 81 79 74 72 73 80 88 91 90 87 87 87 87 88 89 89 89 87 82 78 74 72 71 72 75 78 83 87 89 88 88 89 92 95 96 95 93 88 86 86 87 87
78 74 71 71 73 77 81 85 86 85 82 81 81 81 84 87 90 92 89 87 87 86 84 79 78 80 84 86 88 89 90 90 91 93 96 93 91 90 91 92 89 84 75 71 73 75 74 77 78 75 65 62 62 63 64 66 66 66 67 72 78 80 75 73 71 72 77 85 90 90 86 85 84 84 87 90 93 93 92 91 88 84 78 74 70 67 68 71 76 82 86 87 88 90 91 89 91 92 93 91 88 87 87
79 77 76 74 75 77 79 82 83 84 85 86 86 86 88 91 91 89 87 86 84 81 79 78 82 87 89 90 90 90 90 91 91 92 97 95 91 89 90 92 88 82 76 75 76 78 79 82 81 75 65 62 62 63 63 65 65 65 66 72 77 77 73 71 70 70 75 84 89 90 87 87 86 86 89 92 94 95 95 95 94 93 90 83 78 75 75 70 71 76 80 83 85 87 88 87 88 90 92 89 86 83 84
84 85 83 79 78 80 83 85 87 88 87 87 87 87 90 92 91 89 86 85 82 81 84 88 91 92 91 90 92 94 93 95 95 95 96 95 92 89 89 88 85 81 77 76 75 75 77 80 77 70 64 63 62 62 62 62 63 64 65 73 76 76 71 69 69 71 79 86 86 85 85 87 88 88 88 91 92 92 91 90 90 91 93 91 91 89 83 79 76 76 80 83 83 83 86 88 90 93 94 93 92 90 88
86 87 87 84 82 83 87 94 96 95 93 90 88 88 89 91 90 88 86 86 86 88 92 92 92 93 92 93 95 96 93 96 94 92 92 92 90 88 87 83 81 79 76 75 73 71 70 76 72 66 63 63 62 62 62 62 62 63 65 72 75 73 69 68 70 76 85 84 83 82 83 85 85 85 86 86 86 85 84 83 84 87 88 88 91 93 94 92 88 86 86 85 85 86 87 89 92 94 94 94 95 95 95
91 89 88 83 81 83 89 95 97 97 95 93 91 90 88 89 90 89 88 88 89 90 92 94 96 96 96 94 95 95 93 91 90 89 85 85 84 82 81 80 78 76 75 74 73 71 65 71 72 69 64 63 63 64 63 62 62 62 66 74 74 70 68 66 73 80 84 84 83 83 83 85 87 88 88 84 82 82 84 83 84 86 90 92 92 91 93 96 97 96 94 91 89 87 87 89 91 93 94 95 95 96 97
88 83 78 75 76 80 88 93 95 95 93 94 95 94 92 91 92 93 93 89 90 93 97 96 96 96 96 92 92 91 89 87 85 84 81 80 79 78 78 77 76 75 74 74 73 71 66 68 70 70 64 64 63 63 63 61 61 63 70 74 72 68 66 65 75 84 83 86 85 84 84 87 87 87 87 82 80 80 82 84 87 91 96 96 95 93 92 91 93 94 93 89 87 86 85 87 90 93 97 98 99 99 98
77 72 69 70 73 78 83 86 89 91 93 96 97 97 97 95 96 96 96 95 96 96 96 96 95 93 92 88 86 84 82 81 79 77 77 76 75 75 74 74 74 74 74 73 72 71 67 68 70 70 66 64 63 63 64 62 62 64 71 69 65 62 62 63 73 82 81 84 85 87 88 83 81 81 83 82 82 83 83 86 92 96 95 92 89 87 87 88 87 86 85 86 85 83 82 86 90 93 96 98 98 98 98
68 67 68 70 73 75 79 83 84 84 87 92 95 97 99 97 96 95 95 96 97 96 94 96 93 88 85 82 80 78 77 76 74 73 72 72 72 72 72 72 72 72 72 72 71 69 67 70 71 69 65 64 63 63 64 63 64 65 69 63 59 57 55 59 69 78 77 81 85 87 86 81 79 80 82 84 84 84 85 89 90 90 88 85 85 86 87 86 85 85 85 85 86 86 86 87 89 92 94 95 92 90 88
61 64 68 72 73 74 78 79 78 78 80 84 88 93 95 95 94 94 94 95 95 94 91 89 85 81 79 77 75 74 73 72 71 71 71 71 71 70 70 70 70 70 70 70 69 68 69 73 70 66 63 62 62 63 63 64 65 66 65 60 57 54 51 58 68 76 78 81 81 80 79 76 76 79 82 83 82 82 84 88 87 83 79 79 81 83 83 82 80 78 78 82 87 92 94 93 95 97 97 95 92 88 86
59 63 67 71 72 72 73 74 74 75 77 78 81 84 88 90 91 93 94 93 92 89 85 81 80 78 77 74 73 72 71 71 71 71 70 70 70 69 69 69 68 68 68 67 67 68 70 70 66 61 60 60 61 61 61 64 66 66 63 61 58 55 52 60 69 77 80 82 78 72 73 76 78 80 81 80 79 79 81 83 80 76 73 73 75 77 79 79 80 80 80 84 87 92 97 95 95 96 98 98 98 98 96
61 65 69 72 73 73 73 73 74 75 76 76 77 79 82 87 90 93 93 91 87 82 80 79 79 78 77 75 74 73 72 72 71 70 70 69 68 67 67 67 67 66 66 65 66 67 68 63 60 58 58 58 59 60 61 64 66 66 62 62 59 56 54 63 71 77 77 78 76 75 78 81 83 84 82 79 78 79 81 79 75 70 68 68 70 74 78 78 80 83 85 88 89 91 93 92 90 89 90 91 94 95 95
65 69 71 72 73 73 73 73 74 75 75 76 77 78 79 83 87 89 89 84 81 79 78 78 77 76 75 75 74 74 73 73 72 71 70 69 68 67 66 66 66 65 65 63 64 64 61 58 56 56 55 56 57 59 61 64 65 64 61 60 57 55 55 63 70 74 72 75 76 78 82 83 83 83 81 78 78 78 79 77 74 70 69 69 70 74 77 76 77 80 84 88 90 91 92 92 90 88 86 86 87 88 87
69 70 72 72 72 72 73 74 74 75 76 77 77 78 79 80 82 82 81 80 78 78 77 75 74 72 71 71 71 71 72 71 71 71 71 70 69 68 67 66 65 64 62 61 59 56 53 53 53 54 53 54 55 58 61 65 64 60 57 55 52 52 53 64 69 71 71 73 74 76 78 77 78 79 78 77 76 76 77 77 76 75 75 76 77 77 78 75 73 73 78 85 89 90 91 92 92 91 89 88 88 88 85
70 71 72 72 72 73 74 75 75 76 76 77 78 78 79 79 80 80 80 79 78 77 75 73 71 69 68 68 67 67 67 66 66 67 69 69 69 68 67 66 64 61 57 57 53 50 49 49 50 51 51 52 53 56 61 64 61 56 51 48 47 49 54 64 68 69 70 71 72 73 75 77 77 77 77 77 77 77 78 78 78 77 78 79 81 82 82 77 73 72 75 82 86 87 87 86 87 87 86 87 87 87 87
70 71 72 72 73 74 75 75 75 76 76 77 78 79 79 79 79 79 79 78 77 76 74 73 71 70 68 66 65 63 63 60 59 60 62 64 65 65 65 62 59 56 52 51 49 47 46 46 47 48 48 49 50 54 62 63 58 51 45 43 44 48 57 66 70 69 69 70 71 72 73 75 76 76 76 76 76 77 80 80 79 79 78 79 81 82 80 76 73 72 73 77 79 79 77 75 75 75 75 80 81 83 88
70 71 72 73 74 75 76 76 76 76 76 77 78 78 79 79 78 78 78 77 77 76 75 75 73 71 68 64 62 60 60 57 55 54 54 55 57 58 58 54 52 50 47 46 46 45 44 44 45 46 46 46 48 53 63 60 54 46 40 39 44 51 61 70 72 71 70 71 72 72 73 75 75 75 75 75 75 78 81 81 80 80 80 82 82 80 78 74 71 69 68 70 70 69 68 67 66 66 66 71 74 77 83
70 71 73 74 75 76 76 76 76 76 76 77 78 78 78 78 78 78 78 78 78 77 77 76 72 67 63 60 57 55 54 53 52 51 50 48 48 49 50 47 46 45 45 44 44 44 44 44 44 45 45 44 46 52 62 57 49 42 36 37 45 55 65 71 73 73 73 74 74 74 75 75 74 73 74 74 75 77 82 81 81 81 84 84 82 80 78 74 71 69 67 67 68 68 69 68 67 66 64 65 68 71 77
70 72 74 75 76 76 76 75 75 75 76 77 78 78 78 78 78 78 78 78 79 80 79 74 66 59 55 54 52 51 49 49 49 48 47 45 43 43 44 43 44 44 43 42 42 43 43 43 43 43 42 41 45 51 57 52 44 36 32 37 46 57 67 72 76 77 76 76 75 75 75 75 73 73 73 73 74 76 81 81 81 82 84 83 82 81 80 78 75 72 70 70 71 74 77 78 76 74 70 67 66 67 69
71 73 74 76 76 75 74 74 74 75 76 77 77 77 76 75 76 76 76 76 78 79 76 66 59 54 51 49 48 47 46 46 45 44 43 42 40 40 40 41 42 42 41 40 40 40 40 40 39 38 37 37 43 50 54 46 37 30 29 36 45 55 64 72 76 78 78 77 76 75 74 74 74 73 73 74 74 75 78 79 80 80 80 81 81 82 82 83 81 78 76 75 77 81 85 87 86 84 81 76 72 70 70
72 74 75 76 75 75 75 76 75 75 76 77 77 75 72 70 71 72 72 70 70 70 65 58 54 52 50 46 44 43 43 43 42 41 38 38 38 38 38 39 39 38 38 37 37 37 36 35 35 34 33 34 42 49 50 38 29 25 28 36 45 53 62 72 77 78 78 77 75 73 73 72 72 73 73 74 74 74 77 77 77 77 78 77 78 79 81 81 81 80 79 77 78 81 84 86 87 86 84 83 80 78 77
69 69 70 71 73 75 77 78 78 77 76 75 75 73 67 65 65 66 66 68 64 60 55 52 50 49 47 44 42 41 41 40 40 39 37 37 36 37 37 37 36 35 35 34 34 33 33 31 31 31 31 34 42 48 43 30 23 22 28 36 43 51 60 70 76 78 77 77 75 73 73 70 70 72 72 74 74 74 75 75 74 73 74 74 74 75 76 76 76 76 75 75 75 75 76 77 78 78 77 78 78 78 78
65 64 65 66 69 71 72 74 75 75 75 74 71 68 63 62 61 62 65 74 67 56 50 48 46 46 45 41 40 40 41 39 39 38 37 36 35 35 36 34 32 32 32 31 30 30 29 29 29 29 30 33 42 46 37 27 22 23 28 35 42 48 57 66 72 76 77 77 76 75 72 70 70 71 71 72 72 72 73 73 72 71 70 71 71 72 73 74 74 74 73 73 73 72 72 72 73 73 72 73 73 73 73
64 62 62 63 65 67 68 69 70 71 71 70 68 64 61 60 61 64 69 73 64 52 48 47 46 45 43 40 40 40 40 39 38 37 38 35 34 33 32 30 29 29 29 29 28 27 27 27 27 28 29 32 40 44 37 27 23 24 29 35 40 46 52 61 68 73 75 75 75 75 73 71 71 70 69 70 70 70 70 69 70 70 69 68 68 69 71 71 72 72 72 72 71 71 71 71 71 71 72 72 72 72 72
64 63 63 63 64 66 68 68 68 69 68 67 65 62 60 60 62 65 68 62 54 48 46 47 45 43 41 39 38 37 38 37 35 34 33 32 30 28 28 27 27 27 27 27 27 25 25 24 25 25 27 30 38 44 40 30 25 25 29 34 39 44 48 55 62 67 71 72 73 73 73 72 71 69 65 68 68 67 66 65 66 67 67 65 66 67 69 68 69 70 70 70 70 69 69 69 69 70 70 71 71 71 72
66 66 64 64 65 66 66 67 67 67 67 65 63 61 60 58 59 59 57 53 49 47 47 46 44 42 40 38 36 35 35 34 32 30 28 28 27 26 26 25 25 25 25 26 26 25 24 24 23 23 24 27 35 42 43 32 27 26 29 32 36 40 45 50 55 60 65 68 69 69 69 69 67 66 65 64 62 62 63 62 63 65 65 64 65 67 67 67 67 67 68 68 68 68 67 68 68 68 69 70 70 71 72
67 66 64 64 65 65 65 65 66 66 65 63 62 59 56 53 51 51 53 53 53 52 49 48 45 42 41 38 36 33 32 31 30 28 25 25 24 24 24 24 24 24 25 25 25 25 24 23 22 21 22 25 32 38 42 33 28 26 27 29 32 35 39 44 49 53 57 62 64 65 65 64 64 63 61 60 58 58 60 60 62 63 63 63 63 64 65 64 65 65 66 66 65 65 65 65 66 66 66 67 68 70 70
67 66 64 64 64 64 63 63 62 62 62 62 60 56 53 50 50 53 57 57 55 50 41 41 42 41 38 36 34 32 30 29 28 26 24 24 23 22 23 24 24 25 25 26 26 25 24 23 22 21 21 23 28 35 42 34 29 25 25 26 27 29 31 34 38 43 48 52 55 58 60 60 60 59 58 59 58 58 59 57 58 59 58 57 59 62 63 63 62 62 62 62 62 62 62 62 63 63 64 65 67 68 69
67 66 64 63 62 62 62 61 60 62 66 67 60 52 54 53 55 58 59 54 47 41 38 37 36 36 34 32 31 29 28 27 27 27 25 24 23 22 23 23 24 25 26 27 27 27 26 24 23 22 23 22 24 29 38 35 30 26 23 23 23 24 25 25 27 29 33 39 44 48 51 53 54 54 54 54 55 56 56 55 54 54 54 56 58 60 60 60 59 59 59 60 60 60 60 61 62 63 64 65 66 67 67
67 66 63 62 61 60 60 59 61 63 63 55 50 48 48 50 53 55 52 44 39 37 35 34 33 33 31 29 28 25 20 21 24 27 25 25 24 23 23 23 23 24 26 28 29 29 28 26 24 23 23 23 24 27 33 36 33 28 23 21 20 20 20 21 21 22 23 27 33 38 42 44 46 47 47 48 49 49 50 48 49 50 52 55 55 55 56 58 59 59 59 59 59 58 58 60 61 61 62 62 63 63 65
68 66 63 61 59 58 58 57 56 55 55 51 50 51 52 53 55 54 51 45 41 38 36 34 33 32 30 28 26 23 17 18 23 26 25 25 25 24 24 23 23 24 26 27 28 29 29 27 25 23 22 22 23 25 28 33 34 30 25 21 19 18 18 18 18 18 17 18 22 27 32 35 37 38 39 41 43 44 44 45 47 49 50 51 51 51 53 54 55 55 56 57 57 57 57 58 59 59 60 61 62 64 66
68 64 62 59 57 56 55 54 54 55 57 55 54 53 55 58 58 55 51 48 44 39 36 32 29 26 24 26 25 23 24 21 23 26 24 24 25 25 25 24 23 24 25 26 27 28 29 27 24 23 22 21 21 21 24 28 32 32 27 21 18 16 15 14 13 12 11 11 12 15 19 22 25 27 29 33 36 38 40 41 43 45 47 46 46 47 49 51 52 53 54 55 55 56 56 57 58 59 61 62 64 65 66
66 62 60 57 55 53 51 51 52 55 57 56 55 56 58 57 53 47 41 36 31 27 25 24 23 22 22 26 27 26 27 26 26 26 24 23 24 25 25 24 24 24 24 25 26 27 28 27 25 23 22 21 21 21 22 25 29 32 30 24 19 15 13 12 10 9 8 8 8 9 10 12 14 16 18 20 25 30 33 35 38 39 40 40 41 44 46 48 50 51 52 53 54 54 55 56 58 59 62 62 62 62 64
64 61 58 54 52 50 49 51 53 54 54 54 55 55 53 48 42 36 31 28 27 27 27 26 26 26 27 28 28 28 27 27 27 26 24 23 23 24 25 24 24 24 24 24 25 27 28 27 25 23 22 21 21 22 24 25 27 30 32 28 23 19 16 14 12 10 8 8 8 8 8 8 9 10 11 13 17 21 23 25 28 30 30 32 36 40 44 46 48 50 51 51 52 53 54 55 56 58 59 58 59 61 63
62 58 54 52 52 53 53 53 52 52 52 52 52 50 46 39 35 32 29 28 27 26 26 24 22 22 26 27 28 27 24 26 27 26 24 24 24 24 24 24 24 24 24 24 25 27 27 26 25 23 22 22 22 23 25 26 26 26 29 30 28 26 24 22 19 14 11 10 10 9 8 8 8 9 9 8 10 11 11 13 16 18 16 21 28 35 40 45 48 49 50 51 52 53 54 55 55 56 56 57 59 61 62
60 55 52 53 55 57 55 53 51 50 50 50 49 46 40 34 30 28 27 27 26 25 25 23 20 19 23 25 27 27 25 27 27 26 25 25 25 24 23 23 24 25 24 24 24 25 27 25 24 24 23 24 24 24 24 25 25 24 25 27 28 28 29 29 26 21 17 15 13 12 10 9 9 9 9 9 8 8 8 9 10 9 9 16 22 30 39 44 47 48 50 51 52 53 54 55 55 56 57 58 59 61 62
57 53 52 56 58 57 53 51 50 50 51 51 49 43 35 31 28 26 26 26 25 26 26 26 25 24 23 26 27 27 25 27 28 27 26 26 25 24 23 23 24 24 24 24 24 24 26 25 25 25 25 24 23 23 24 25 24 23 23 24 24 25 27 27 27 26 23 22 19 16 13 11 10 9 9 9 9 9 9 9 9 9 8 10 17 26 35 41 44 46 49 51 52 53 54 55 56 56 57 58 60 61 62
54 52 53 56 55 53 50 50 50 52 54 53 47 40 33 29 26 24 24 24 24 24 27 27 27 26 26 27 28 28 29 29 28 28 28 27 26 25 24 23 23 23 24 25 25 24 25 25 25 25 24 24 23 23 24 24 23 23 23 23 24 25 25 25 24 24 26 26 26 23 19 15 12 10 9 9 9 10 10 10 10 9 8 8 13 20 27 34 39 43 47 49 50 51 53 54 56 57 58 59 61 62 62
54 53 53 53 51 50 50 51 53 54 54 48 41 34 29 26 24 23 22 21 20 20 21 25 27 26 26 27 27 27 28 28 28 28 28 28 27 26 25 24 23 23 24 25 24 24 24 25 25 24 24 24 24 24 23 23 24 24 24 24 25 25 23 21 20 21 24 25 27 27 25 19 15 12 11 11 12 12 13 13 12 11 10 10 12 16 21 26 31 37 42 44 47 50 54 56 58 58 59 61 62 63 64
55 54 53 53 53 53 53 54 53 51 46 38 33 28 25 25 24 23 23 22 20 18 17 22 26 27 26 26 26 26 27 27 28 28 28 28 28 26 25 25 24 23 23 24 24 23 24 25 25 24 24 24 24 24 24 24 25 25 26 26 26 24 20 18 19 21 23 25 26 28 29 23 19 15 14 15 16 17 18 17 16 14 13 13 14 16 21 22 26 30 35 39 44 50 57 61 62 62 62 64 65 66 67
58 58 59 61 61 59 56 53 48 42 35 30 27 25 24 25 26 26 25 24 24 23 21 22 25 28 27 26 25 25 26 26 27 27 28 28 27 26 25 25 24 23 23 24 23 23 23 26 26 26 26 26 25 24 25 26 26 26 26 27 26 25 21 20 22 24 25 26 27 28 29 25 21 19 19 19 19 20 21 21 19 17 16 16 18 22 25 26 27 28 31 35 42 50 60 62 64 65 66 69 70 70 69
62 65 69 70 66 60 54 49 41 34 28 25 23 22 22 24 26 27 27 26 27 27 26 25 26 27 28 26 25 25 25 25 25 26 27 27 26 25 24 24 23 22 23 24 23 23 22 26 28 28 26 25 25 25 26 26 26 26 26 27 27 27 26 25 26 27 28 28 28 29 28 24 22 21 21 21 21 22 24 24 22 21 20 20 23 27 30 30 31 31 32 35 44 55 62 64 66 67 69 71 73 72 70
70 74 77 71 63 55 49 42 35 28 25 22 21 20 21 23 25 27 28 27 27 28 29 28 27 27 28 27 25 24 24 24 24 25 27 26 24 24 24 23 22 21 22 23 23 23 23 26 27 25 22 23 23 24 24 25 25 25 25 27 28 29 29 29 29 28 28 29 29 29 27 24 22 22 22 22 22 23 24 25 24 23 23 24 27 30 32 32 33 34 35 39 49 58 62 65 67 68 70 71 72 72 70
78 79 72 63 54 47 41 35 29 25 22 21 21 21 21 23 25 26 27 28 28 28 29 30 30 28 27 27 25 24 24 24 25 25 27 25 24 24 24 23 21 20 21 22 22 23 25 28 26 23 21 22 22 22 23 24 24 24 26 28 28 29 30 30 30 29 28 28 28 27 25 23 23 23 23 22 22 23 23 24 24 24 25 27 29 31 33 34 35 36 37 42 50 57 62 64 66 68 69 71 72 72 72
78 70 59 51 45 39 33 28 24 21 21 21 22 23 23 24 25 26 27 28 28 28 28 30 30 29 28 26 25 24 24 24 25 26 26 24 23 23 23 21 20 19 20 21 22 24 28 28 26 23 22 22 22 22 22 22 23 24 26 27 28 29 30 29 28 27 26 26 26 25 23 23 23 23 23 23 23 22 22 23 23 24 26 28 30 32 33 35 37 38 39 42 49 56 59 62 64 66 68 70 71 72 73
65 55 48 43 37 32 27 23 20 20 21 22 23 24 24 26 26 27 27 28 28 28 28 29 29 28 27 25 24 24 23 23 24 25 25 22 20 19 19 19 19 19 20 20 22 26 28 27 25 23 23 22 21 21 21 22 22 22 22 23 24 25 26 25 24 24 24 24 24 23 23 23 23 23 24 24 23 22 23 23 24 24 26 28 30 31 34 36 38 38 39 43 48 53 56 59 62 65 67 69 70 71 72
51 45 41 35 30 26 23 20 20 20 23 23 23 23 24 25 26 26 26 27 27 27 27 28 28 27 25 24 24 23 23 23 24 24 23 20 18 17 17 17 18 19 20 20 23 25 26 25 24 23 23 21 20 20 20 20 21 21 20 21 21 21 21 22 22 22 23 23 23 22 22 23 24 24 24 24 24 23 24 24 24 25 25 27 29 30 33 35 36 37 38 41 45 47 47 54 60 64 66 68 69 71 71
44 39 34 29 25 23 21 20 20 22 23 23 23 23 23 23 23 23 24 26 27 27 27 26 26 26 25 24 24 24 23 23 23 23 21 19 18 17 17 17 17 18 20 21 22 22 23 25 25 24 23 21 20 19 18 19 19 20 20 21 21 20 20 21 21 22 22 22 22 22 22 23 24 24 24 25 25 25 25 25 25 25 25 27 28 29 30 32 34 35 37 38 38 38 36 43 53 61 65 67 69 70 69
40 33 27 24 22 21 21 20 20 21 22 22 22 22 21 21 21 23 25 27 28 29 28 28 27 26 25 25 25 25 24 23 23 23 20 18 18 19 19 18 17 17 17 23 22 21 22 24 25 24 22 20 19 19 19 19 19 20 20 21 21 21 21 22 22 22 22 21 21 21 22 23 24 24 25 25 26 26 26 25 25 25 25 26 27 27 28 29 31 33 34 33 32 31 33 37 46 56 62 65 69 70 67
33 26 23 21 21 21 21 19 18 18 19 20 20 20 21 23 24 25 25 26 26 27 27 27 27 28 27 27 27 26 25 24 24 23 20 19 20 21 22 20 18 15 13 19 22 23 22 25 25 24 21 20 19 19 20 19 19 20 21 22 22 22 23 23 23 22 22 21 21 21 22 23 23 24 25 26 26 26 26 26 25 25 26 26 27 27 28 29 30 31 30 28 26 27 33 37 43 51 58 62 65 67 66
25 22 21 21 21 20 19 17 16 17 20 22 23 24 24 24 24 24 24 24 25 25 26 26 26 27 28 28 29 28 25 24 24 24 23 23 22 22 22 20 18 17 16 14 20 27 26 25 23 21 19 19 19 19 20 19 19 20 22 23 24 24 24 23 23 22 22 21 21 21 22 23 24 25 26 27 27 27 27 26 26 26 26 27 27 28 28 29 30 30 28 26 26 29 34 37 40 46 54 58 62 65 67
21 21 21 21 20 19 17 17 18 20 24 24 24 24 24 23 24 24 24 25 25 26 27 28 27 25 25 26 28 28 27 25 25 25 26 27 26 22 18 19 18 17 17 17 20 23 25 20 18 17 17 17 18 19 20 20 20 21 23 24 24 24 23 23 22 22 22 21 21 21 22 23 24 25 26 27 27 27 27 27 27 27 26 27 28 28 29 29 30 29 28 28 29 32 35 37 39 43 51 55 60 64 69
21 21 21 21 20 19 19 22 23 25 25 24 24 24 24 24 24 24 24 24 24 24 24 25 25 24 22 23 25 27 28 26 25 25 27 29 28 25 21 20 19 19 18 19 18 18 20 18 17 17 17 17 18 19 19 20 20 21 22 23 23 23 23 22 22 22 22 22 22 22 23 24 25 26 27 27 27 28 28 28 27 27 27 27 28 28 29 30 30 30 30 32 33 33 34 36 39 42 48 53 59 64 70
21 22 21 20 20 20 23 24 24 24 23 23 24 24 24 24 24 24 24 24 24 24 23 23 23 23 24 23 24 25 28 28 27 26 28 29 29 29 26 23 21 20 16 18 19 18 18 18 18 17 16 16 17 18 18 18 19 21 22 23 23 23 23 23 22 22 22 22 23 23 24 25 26 26 26 27 28 28 28 28 28 28 27 27 28 28 29 30 31 31 32 32 32 32 32 36 39 42 47 54 60 65 68
22 21 21 20 20 21 24 23 22 21 21 23 24 24 25 25 25 25 24 24 24 24 24 24 24 25 27 26 24 24 25 28 29 29 30 30 30 29 29 26 24 21 19 18 18 19 20 19 19 18 16 17 17 17 18 19 20 22 23 23 23 23 22 22 22 22 23 23 24 24 25 26 26 26 27 27 28 29 29 29 28 28 27 28 28 28 29 30 30 31 31 31 31 32 32 35 39 44 50 56 61 64 66
22 21 20 20 20 21 22 22 22 21 21 22 23 24 25 25 25 25 25 25 25 25 25 26 26 27 28 28 26 24 22 25 29 32 33 33 31 30 30 28 28 27 26 23 22 22 21 21 20 19 17 17 18 18 19 20 21 21 21 21 21 20 20 21 21 22 23 23 24 25 25 26 26 27 27 28 29 29 29 28 28 28 28 28 29 29 29 29 30 30 30 30 31 32 34 37 42 48 54 57 59 61 62
22 21 21 22 22 22 22 22 22 22 22 22 23 24 25 26 26 26 26 26 26 26 26 26 27 28 28 28 28 25 22 22 26 31 36 36 34 32 33 30 29 29 28 28 27 26 24 23 22 22 20 19 19 19 21 21 21 21 20 20 20 20 20 20 21 22 23 23 24 25 25 26 26 27 28 28 28 28 28 28 28 29 29 29 30 30 30 30 30 30 30 30 32 33 35 40 45 50 54 56 57 58 57
23 23 24 24 24 24 23 23 23 23 23 24 25 26 26 26 26 25 25 25 25 26 26 26 27 28 29 28 28 26 24 25 26 28 31 34 33 32 33 31 30 30 30 30 30 29 28 27 26 25 24 22 21 21 21 22 21 21 20 20 20 20 20 21 22 22 23 24 24 24 25 25 26 26 27 27 28 28 28 28 29 29 30 30 30 30 30 29 29 29 30 31 32 33 36 41 46 50 53 54 55 56 56
24 25 26 26 26 25 24 23 23 24 25 25 26 26 25 25 24 22 21 21 23 25 27 27 27 27 28 29 29 28 27 28 29 29 28 28 29 30 31 29 28 28 29 31 31 31 31 30 29 29 28 27 25 23 22 22 21 21 21 21 21 21 21 22 22 23 23 24 24 24 24 25 25 26 26 27 27 27 28 28 28 29 30 30 30 30 29 29 29 29 29 30 31 33 37 42 46 49 51 52 53 55 58
26 26 27 27 26 26 25 25 25 25 25 25 24 24 23 23 23 23 23 24 25 27 28 28 28 28 28 29 31 32 31 30 30 30 31 28 28 29 30 28 28 28 28 29 30 31 31 31 31 31 32 32 30 26 24 22 21 21 21 21 21 22 22 22 23 23 23 23 24 24 24 25 25 26 26 27 27 28 28 28 29 29 29 29 29 29 29 29 28 28 29 29 31 34 38 42 45 48 50 51 54 57 61
Wind_Speed
5 5 4 5 5 7 8 9 10 10 9 9 8 7 6 6 6 6 6 7 8 7 7 5 5 5 5 5 4 4 5 5 4 4 3 4 4 4 4 4 4 5 5 4 2 3 4 5 6 6 5 4 4 4 5 5 5 5 5 4 5 5 6 8 10 10 8 7 7 7 7 7 7 7 8 7 7 7 7 7 8 8 9 9 9 9 9 9 10 11 13 14 14 13 11 10 10 10 10 10 10 10 10
5 5 5 6 6 7 8 8 8 8 8 8 8 7 6 6 5 5 5 6 6 6 5 4 4 4 4 4 4 4 5 5 5 5 5 5 5 5 5 5 5 5 5 3 3 4 6 6 6 5 5 5 5 5 5 5 5 5 5 4 5 6 7 9 10 10 8 6 6 7 7 7 8 8 8 8 8 8 8 8 8 8 8 8 9 9 9 10 10 12 14 15 15 14 13 12 10 9 9 10 11 11 12
5 5 6 6 7 8 8 8 7 7 7 7 7 6 6 5 5 5 5 5 4 3 3 3 3 4 4 5 5 6 6 6 6 6 5 6 6 6 6 5 5 5 4 3 3 4 6 7 6 5 5 5 5 5 5 5 5 5 4 4 5 6 9 10 11 10 9 7 6 7 7 7 8 8 8 8 8 8 8 8 8 8 8 8 9 9 9 10 10 11 12 14 15 15 15 14 12 9 9 10 12 13 13
5 6 6 6 7 8 8 8 7 7 6 6 6 6 5 5 5 5 5 4 4 3 3 3 4 4 5 6 6 6 5 5 6 6 5 5 5 5 5 5 4 4 5 4 4 4 5 7 6 5 4 5 5 5 5 6 5 5 4 4 5 7 10 11 11 10 9 8 7 7 8 7 7 7 7 8 8 8 8 8 8 7 7 8 8 9 10 10 11 11 11 12 12 13 14 14 13 11 10 11 13 13 12
5 5 6 6 6 7 7 7 7 6 6 5 5 5 5 4 4 5 5 4 4 4 4 4 5 5 6 6 5 5 4 5 5 5 4 5 4 4 4 4 4 5 6 6 5 6 6 7 7 5 4 5 5 6 6 6 5 5 4 5 6 9 11 12 11 10 9 9 8 8 8 8 8 7 8 8 9 9 8 8 7 8 8 8 8 8 8 9 10 10 11 11 11 11 11 12 12 11 11 12 12 13 12
5 5 4 5 5 6 5 5 5 6 6 5 5 4 4 4 4 4 4 4 5 4 4 5 5 5 5 5 4 4 5 5 5 4 4 4 3 3 4 4 5 6 7 7 6 6 7 7 7 6 5 5 5 6 6 6 5 5 5 5 7 10 12 12 11 10 9 9 8 8 8 8 8 8 8 9 10 10 9 8 8 8 8 9 9 9 8 8 8 9 10 11 10 10 10 10 10 10 11 12 12 13 13
5 4 3 3 4 5 4 4 5 5 5 4 4 4 4 4 4 4 4 4 4 4 4 5 4 4 4 4 4 4 4 4 4 3 3 3 3 4 4 5 6 6 7 7 6 6 7 7 7 6 6 5 6 6 6 6 5 6 6 6 8 11 12 12 11 10 9 9 8 7 7 7 7 8 8 9 10 10 9 8 8 8 8 8 8 9 9 9 9 10 11 12 13 13 12 12 11 11 11 12 12 12 12
5 4 3 3 3 4 4 4 4 4 4 3 3 4 4 4 4 4 4 4 4 4 4 4 4 4 4 4 3 3 3 3 3 3 4 4 4 5 5 5 6 6 6 6 6 6 6 6 6 6 6 5 6 6 6 6 6 6 7 8 10 11 11 11 10 9 9 8 8 7 7 7 7 7 7 8 8 9 9 9 9 9 8 8 9 9 10 10 11 11 11 12 13 15 16 15 14 13 13 12 11 11 12
4 3 3 3 4 4 4 4 4 4 4 3 3 3 3 3 3 3 3 3 3 3 3 4 4 4 4 3 3 4 4 4 4 5 5 5 6 6 6 6 6 6 6 6 6 6 6 5 5 5 5 5 6 6 6 6 6 7 8 9 11 11 11 10 10 9 9 9 8 8 8 8 7 7 7 8 8 8 8 9 10 9 9 9 10 10 10 10 11 11 10 11 12 13 14 14 14 14 13 13 13 13 14
3 3 3 4 4 4 4 4 4 3 3 3 2 3 3 3 3 3 3 3 3 4 4 4 4 4 4 4 4 4 5 5 6 6 7 7 7 7 6 6 6 5 6 6 6 6 6 5 5 5 5 5 6 6 6 6 6 7 8 10 11 11 11 11 10 9 9 9 9 8 9 8 9 9 9 9 9 8 8 9 10 11 10 10 9 8 9 9 10 10 10 11 11 11 11 10 10 10 11 12 13 14 15
3 4 4 4 4 4 4 4 3 3 3 3 3 3 3 3 4 3 3 4 4 4 4 4 5 5 5 5 5 5 5 6 6 7 7 7 7 7 7 6 6 6 6 6 6 6 5 4 4 5 5 5 6 6 6 6 6 7 9 11 12 12 12 11 10 10 9 9 9 8 8 8 8 9 9 10 9 9 8 9 10 11 11 10 9 8 9 10 11 11 11 11 11 10 10 10 9 9 10 10 11 11 12
4 4 4 4 4 4 4 4 3 3 2 2 3 3 3 4 4 4 4 3 3 3 4 5 6 6 6 6 6 6 6 6 6 7 7 7 7 7 7 7 7 6 6 6 6 5 5 4 4 5 5 5 5 6 6 5 6 7 10 12 12 12 12 12 10 10 9 9 9 8 8 8 8 8 9 10 9 8 7 8 10 11 11 10 9 9 9 10 10 10 10 10 10 9 9 9 9 10 10 11 10 10 9
4 4 4 4 4 4 4 4 3 3 3 3 3 3 3 4 4 4 3 4 4 5 6 7 7 7 7 7 6 7 7 7 7 7 7 7 7 7 7 7 7 7 7 6 5 5 4 4 4 5 5 5 5 6 5 5 6 8 11 12 12 12 12 11 10 9 9 9 9 8 8 8 7 8 8 9 9 8 7 8 9 10 10 9 8 8 8 9 9 9 9 9 9 8 8 8 9 10 11 12 12 11 10
5 5 4 4 4 4 4 4 4 3 3 3 3 3 3 3 4 4 4 5 6 6 7 7 7 6 6 6 6 6 7 7 7 7 8 8 8 8 8 8 8 7 7 6 5 4 4 4 5 5 5 5 5 5 5 5 6 8 11 12 12 12 11 10 10 9 9 9 8 8 8 7 7 7 7 7 7 7 7 8 8 9 9 8 7 6 6 7 7 7 7 7 8 8 8 8 8 9 10 11 12 12 12
5 5 4 4 4 4 4 4 4 3 3 3 3 3 3 4 4 5 6 6 6 6 6 6 6 7 7 7 7 6 6 7 7 8 8 8 8 8 8 8 8 7 6 6 5 4 4 4 5 5 5 5 5 5 5 5 6 9 11 12 11 10 10 9 9 9 9 8 8 8 7 7 7 6 6 7 7 7 7 7 8 8 8 7 6 6 5 6 6 6 6 6 7 7 8 8 8 9 9 10 10 11 12
5 5 5 4 4 4 4 4 4 3 3 3 3 4 4 4 5 5 6 6 5 5 5 6 7 8 9 9 8 6 6 7 7 8 9 9 8 8 8 8 8 7 6 5 4 4 5 5 5 5 5 5 5 5 5 4 7 10 11 11 10 9 9 9 9 9 8 8 8 7 7 7 6 7 7 7 7 8 8 8 8 8 7 6 6 5 6 6 6 6 5 5 6 7 7 8 8 8 8 9 9 10 11
5 5 5 4 4 4 4 4 4 3 3 3 3 4 4 5 5 5 4 4 4 4 5 7 8 9 10 10 8 6 6 6 7 8 9 9 8 8 8 8 8 7 5 4 5 5 5 5 5 5 5 5 5 5 4 4 7 9 10 9 9 8 8 9 9 8 8 7 7 7 7 7 7 7 7 7 8 8 8 8 8 7 7 6 5 6 6 6 7 6 6 6 6 6 7 7 7 8 8 8 9 9 9
5 5 5 5 4 4 4 4 4 3 3 3 3 3 4 4 4 3 3 3 3 4 5 7 8 9 10 9 7 5 4 4 5 6 8 9 8 8 8 7 7 6 5 5 5 6 5 5 5 5 6 6 5 4 3 6 8 9 9 8 7 7 8 8 8 8 7 7 6 6 6 7 7 7 7 8 8 8 8 8 8 7 6 6 6 6 7 7 7 7 6 6 6 6 6 7 7 7 8 8 8 8 8
6 6 5 5 4 4 4 4 3 3 3 3 3 3 3 3 2 2 2 3 3 4 6 7 8 9 9 8 5 3 3 3 3 4 5 6 7 7 7 6 5 5 5 5 6 6 6 6 6 6 6 6 5 4 4 6 8 9 8 7 6 7 8 8 8 7 7 6 6 6 6 7 7 7 8 8 8 8 8 8 8 7 7 6 6 7 7 7 8 8 7 7 7 7 8 8 8 8 9 9 8 8 8
7 6 6 5 4 4 4 3 3 3 2 2 2 2 2 1 1 2 2 3 3 5 6 7 7 7 7 5 4 4 4 4 4 4 4 4 5 5 5 5 5 5 5 6 6 6 6 6 6 6 6 5 4 4 4 7 8 8 7 6 5 6 7 8 8 7 7 6 6 7 7 7 7 7 8 8 8 8 8 8 8 8 8 8 8 8 8 8 8 9 9 9 10 10 10 10 11 11 10 10 10 9 9
7 7 6 5 5 4 3 2 2 2 2 1 0 1 1 0 1 2 3 4 4 5 6 6 5 5 4 4 4 4 5 5 5 4 4 4 4 4 4 5 5 5 5 5 6 6 6 6 6 5 5 5 4 3 5 7 9 8 6 5 4 5 6 7 8 7 7 7 7 7 7 8 8 7 8 8 8 8 8 8 8 9 9 9 9 9 9 9 9 10 10 11 11 11 10 10 11 11 11 11 11 11 11
6 7 7 6 5 4 3 2 2 2 2 2 2 3 3 2 2 3 3 3 4 4 4 3 3 3 4 4 5 5 5 5 5 5 4 4 4 4 5 5 5 5 5 5 5 5 5 5 5 5 5 4 3 3 5 8 8 7 6 4 2 3 5 7 8 8 8 7 7 7 7 7 8 8 8 8 7 7 8 8 8 9 10 9 9 9 9 9 9 9 10 10 10 10 9 9 9 9 10 10 11 11 10
6 7 7 6 6 5 4 4 4 3 2 3 3 4 4 3 3 3 3 2 2 2 2 2 2 3 4 4 4 5 5 5 5 5 5 4 5 5 5 5 5 5 5 5 5 5 5 5 4 4 4 3 2 2 6 8 8 6 5 3 2 1 3 6 7 8 8 8 8 7 7 7 7 8 8 8 8 8 8 9 8 8 9 9 9 9 9 9 9 9 9 10 10 10 9 9 9 9 9 9 9 9 9
6 6 6 6 5 5 5 5 5 4 3 3 3 3 2 3 3 2 2 1 1 1 1 2 3 4 4 4 4 4 4 4 4 4 5 5 5 5 5 5 5 5 5 5 5 4 4 4 4 4 3 2 2 3 7 8 7 5 4 3 2 0 2 4 7 8 9 9 9 8 8 7 7 8 8 8 8 8 9 9 9 8 8 9 9 9 9 9 10 10 10 10 10 9 9 9 9 9 9 9 9 9 9
5 5 5 5 5 4 4 4 4 3 3 3 2 2 2 2 2 1 0 1 1 1 2 3 3 3 3 4 4 3 4 4 4 4 4 5 5 5 5 5 5 4 4 4 4 4 4 4 4 3 3 2 2 3 6 7 6 5 4 4 3 2 0 2 5 8 9 9 9 9 8 8 8 8 8 8 8 8 8 9 9 9 9 9 9 9 9 9 9 10 10 10 10 10 9 10 10 10 10 10 10 9 9
5 5 5 4 4 4 4 3 3 3 3 2 2 2 2 2 1 1 0 1 2 2 2 2 3 3 3 3 3 3 4 4 4 5 5 4 4 4 5 4 4 4 4 4 4 4 4 4 4 3 3 2 1 2 5 6 6 5 5 5 4 3 2 0 3 6 8 9 9 9 9 8 8 8 7 7 8 8 8 7 8 9 9 8 9 9 9 9 9 10 10 10 10 10 10 9 10 10 10 10 10 10 10
5 5 5 4 4 4 3 3 3 3 3 2 2 2 1 2 1 1 1 1 1 1 1 1 2 3 3 3 3 3 4 4 5 5 5 5 4 4 4 4 4 4 4 4 4 4 4 4 4 3 3 2 1 2 4 5 5 5 5 5 5 4 4 3 0 3 5 7 8 8 8 8 7 7 7 6 7 8 8 7 8 9 9 8 9 10 10 9 9 10 10 10 10 10 10 10 10 10 10 10 10 10 10
6 5 5 4 4 4 3 3 3 3 3 3 2 2 2 2 2 2 1 1 1 0 1 2 2 2 2 3 3 3 4 4 5 5 5 5 5 5 4 4 5 4 4 4 4 4 4 4 4 4 3 2 1 1 3 5 5 5 5 5 5 5 5 4 3 1 2 5 6 7 7 7 7 7 6 5 6 7 8 8 9 9 9 9 10 10 10 9 9 10 10 10 10 10 10 10 10 10 10 10 11 11 11
6 6 5 4 4 4 4 4 3 3 3 3 2 2 2 2 2 1 1 0 1 2 2 2 2 2 2 3 3 3 4 4 5 5 5 5 5 5 5 5 5 4 4 4 4 4 4 4 4 4 3 2 1 1 2 4 5 5 5 5 5 6 6 5 5 4 2 3 4 5 6 6 6 6 6 6 6 7 7 8 8 9 9 9 9 10 10 10 10 10 10 10 10 10 10 10 10 10 10 10 11 11 11
7 6 5 4 4 4 4 4 4 3 3 3 3 2 1 1 1 1 1 2 3 2 2 2 3 3 3 3 3 3 3 4 4 4 5 5 5 5 5 5 5 5 4 4 4 4 4 4 4 4 3 3 2 1 1 4 5 6 6 6 6 6 6 6 6 5 4 3 3 4 5 5 6 6 6 6 6 7 8 8 8 9 9 9 10 10 10 10 10 10 10 10 10 10 10 10 10 11 11 11 11 11 11
7 6 5 4 4 4 4 4 3 2 3 3 3 3 2 2 2 1 2 3 3 2 2 2 3 3 3 3 3 3 4 4 4 4 4 5 5 5 5 5 5 5 4 4 4 3 3 3 3 3 3 2 2 1 1 3 4 5 5 5 5 6 6 6 6 6 5 4 4 4 4 5 5 6 6 6 6 7 8 8 9 9 9 10 10 10 10 10 10 10 10 10 10 10 10 10 11 11 11 11 11 11 11
7 6 5 5 4 4 4 4 4 3 3 3 3 3 3 3 2 1 1 1 1 1 2 2 2 2 3 3 3 4 5 4 4 4 4 4 5 5 5 5 5 5 4 4 4 3 2 2 3 3 2 2 2 1 1 1 2 4 5 5 5 5 6 6 6 6 6 5 5 5 5 5 5 6 6 6 7 7 8 9 9 9 10 10 10 10 10 10 10 10 10 10 10 10 10 11 11 11 11 11 11 11 11
7 6 5 5 5 4 4 4 4 4 4 5 4 4 3 2 1 1 1 2 2 1 1 1 1 1 2 3 3 4 5 5 4 4 4 4 5 5 5 5 4 4 4 4 4 3 2 2 2 2 2 2 2 2 1 0 1 3 5 5 5 5 5 5 6 6 6 6 6 6 6 6 6 6 6 6 7 8 8 8 9 9 10 10 10 10 10 10 10 10 10 10 10 10 10 11 11 11 11 11 11 11 11
7 6 6 5 5 5 5 5 4 5 5 5 5 4 2 1 1 1 1 1 2 2 2 2 2 2 3 3 4 4 4 5 5 4 4 5 5 5 5 5 4 4 4 4 4 3 2 2 2 2 2 2 2 2 1 1 1 2 5 6 6 6 6 5 6 6 7 7 7 7 7 7 7 7 7 7 7 8 8 9 9 10 10 10 10 10 10 10 10 10 10 10 10 10 11 11 11 11 11 11 11 11 12
7 6 6 6 6 6 6 5 5 5 6 5 4 3 1 1 1 2 2 3 3 3 3 3 3 3 4 4 4 4 5 5 5 4 4 5 5 5 5 4 5 5 4 4 3 3 3 2 2 2 2 2 2 1 1 1 1 1 3 6 7 7 7 7 7 7 7 8 8 8 8 8 8 8 8 8 8 8 9 9 9 10 10 10 9 9 9 10 10 10 10 10 10 11 11 11 11 11 11 11 12 12 12
7 6 6 7 7 8 7 7 6 6 6 5 3 2 2 3 3 3 3 3 3 3 2 2 3 3 3 3 4 4 5 5 5 4 4 5 5 5 5 4 4 4 4 3 3 3 3 3 2 2 1 1 1 1 1 1 1 1 2 3 5 6 7 7 8 9 9 9 9 9 9 9 9 8 9 9 9 10 10 10 11 11 10 10 10 9 9 9 10 10 10 10 10 11 11 11 11 11 12 12 12 12 12
7 7 7 8 9 9 8 8 7 7 6 5 3 3 3 3 3 3 3 3 3 3 3 3 3 3 3 3 4 4 5 5 5 5 5 5 5 5 4 4 4 4 3 3 3 3 3 3 2 1 1 1 1 1 1 1 1 1 2 1 2 3 3 5 7 10 11 11 11 10 10 9 9 9 9 10 11 11 12 12 12 12 11 10 10 9 9 9 9 10 10 10 11 11 11 11 12 12 12 12 12 12 13
8 7 8 9 9 9 8 8 8 7 6 5 4 3 3 3 3 3 2 3 3 3 3 3 3 3 3 3 3 4 5 5 5 5 5 5 5 5 5 4 4 3 3 3 3 3 3 3 2 1 1 0 0 1 1 1 1 1 1 2 2 2 2 3 4 7 10 11 12 12 11 10 10 10 11 11 12 12 12 12 12 12 11 10 10 9 9 9 9 10 10 10 11 11 11 12 12 12 12 12 13 13 13
8 8 8 9 9 9 8 8 8 7 6 4 3 3 3 3 2 2 2 2 2 2 3 3 2 3 3 3 3 3 4 5 5 5 5 5 5 5 5 4 4 3 3 3 3 3 3 2 2 1 1 0 0 0 1 1 1 1 1 1 2 2 3 3 4 5 6 7 10 12 13 12 12 13 13 14 14 14 13 13 12 12 11 11 10 9 9 9 10 10 10 11 11 11 11 12 12 12 12 13 13 13 13
10 9 9 9 9 9 9 8 7 6 4 4 4 4 3 4 3 3 2 2 2 1 2 2 3 3 3 3 3 3 4 4 4 5 5 5 5 5 5 5 4 3 3 3 3 3 3 2 2 2 1 1 0 0 1 1 1 1 1 1 2 2 3 4 5 5 5 5 6 9 12 14 15 15 16 16 16 15 15 14 14 13 13 12 11 11 10 10 10 11 11 11 11 11 11 12 12 12 13 13 13 13 13
11 11 11 11 10 10 9 8 6 5 4 4 4 4 4 4 4 4 3 3 3 2 2 2 3 3 3 4 4 4 4 4 5 5 6 6 5 5 5 5 4 3 3 2 3 3 2 3 3 2 2 1 1 1 1 1 1 1 1 1 2 4 6 6 6 6 6 6 6 7 9 13 16 17 18 17 17 16 15 15 15 15 15 14 13 12 12 11 11 11 12 12 12 12 12 12 12 12 13 13 13 13 14
13 12 12 12 11 10 8 7 6 5 5 5 5 5 5 4 4 4 4 4 4 4 4 3 3 3 3 4 4 4 4 5 5 5 6 6 6 5 5 4 4 3 3 3 3 3 2 3 3 2 2 1 1 1 1 1 1 1 2 2 3 6 7 7 7 7 7 7 6 6 8 12 15 17 17 17 16 15 14 15 15 16 16 16 15 14 13 13 13 13 13 12 12 12 12 12 12 13 13 13 14 14 14
13 12 11 11 10 9 8 7 6 6 6 6 5 5 5 5 4 4 4 4 4 4 4 5 5 4 4 4 4 4 5 5 6 6 7 6 6 5 5 4 4 3 3 3 3 2 2 3 3 3 3 2 2 2 1 1 1 2 2 2 3 5 6 7 7 7 7 7 7 7 9 12 15 16 16 15 15 14 13 14 15 16 17 17 16 15 14 14 14 14 13 13 13 12 12 12 13 13 13 14 14 14 14
13 12 11 11 10 9 8 7 7 7 7 6 6 5 5 5 4 4 4 4 3 3 3 4 5 5 5 4 4 5 5 6 7 7 7 7 6 5 5 5 4 3 3 3 2 2 2 2 3 3 3 3 3 2 2 1 2 2 3 3 3 4 5 6 6 6 6 6 6 7 10 13 15 15 15 14 13 12 12 13 14 16 16 16 15 15 15 15 15 14 14 13 13 13 13 13 13 13 14 14 14 14 15
12 11 11 10 10 9 8 8 8 8 7 7 6 6 6 5 4 4 4 4 3 3 3 3 4 5 5 5 5 5 6 6 7 8 8 7 7 6 5 5 4 3 3 2 2 2 2 3 3 3 3 3 3 2 2 2 3 3 3 4 4 4 4 5 5 5 5 6 6 8 11 13 14 14 13 13 12 11 10 11 13 14 15 15 15 15 15 15 15 15 14 13 13 13 13 13 14 14 14 15 15 15 15
12 12 11 11 10 9 9 9 9 9 8 7 7 6 6 5 5 4 4 4 4 3 3 3 3 4 5 6 6 5 6 7 7 8 8 8 7 7 6 5 4 3 2 2 1 2 2 3 3 3 3 2 2 2 2 2 3 4 3 3 3 3 4 4 5 5 5 6 7 10 12 13 13 12 12 11 10 10 10 10 12 13 13 13 14 14 15 15 14 14 14 13 13 13 13 14 15 15 15 15 15 15 15
13 12 12 11 10 10 9 9 9 9 8 7 7 6 5 5 5 4 4 4 4 4 4 3 3 3 4 5 6 6 7 8 8 8 8 8 7 6 6 6 5 3 2 1 1 2 3 3 3 3 2 1 1 2 2 2 3 3 3 3 3 4 4 5 5 6 6 7 8 10 11 12 12 12 11 10 10 10 10 11 12 12 12 13 13 14 14 14 13 13 13 13 13 13 14 15 15 15 15 14 14 14 14
13 12 11 11 11 10 10 9 9 9 8 7 6 6 5 5 5 5 5 5 4 4 4 4 3 3 3 4 6 7 8 9 9 8 8 8 7 6 5 5 5 3 3 2 2 2 4 4 4 3 2 1 1 2 2 2 2 3 3 3 4 5 5 6 6 6 6 8 9 11 11 11 11 11 11 10 10 10 11 12 12 12 12 13 13 13 13 13 12 12 13 13 13 14 15 15 15 15 14 14 14 14 14
13 12 12 11 11 11 10 10 9 9 8 8 7 7 6 6 6 6 5 5 5 5 5 5 5 4 4 5 6 8 9 10 10 9 7 6 6 6 6 5 4 3 3 3 2 2 4 4 4 3 1 1 2 2 3 3 3 3 3 4 4 5 6 7 7 7 7 8 9 10 11 11 11 11 10 10 10 11 11 12 13 13 13 13 13 13 12 12 12 12 12 13 14 16 16 16 15 14 14 14 14 14 15
13 13 12 12 11 11 10 10 10 10 9 9 9 8 7 7 7 6 6 5 4 4 4 4 5 5 4 5 6 7 9 11 11 9 6 5 5 5 5 5 4 3 3 3 3 3 4 5 5 3 1 2 3 3 3 3 3 3 4 4 5 6 6 7 7 7 8 8 9 10 10 11 11 10 10 10 10 11 12 13 13 14 14 14 13 13 12 12 12 12 13 15 16 17 17 16 15 14 14 14 14 15 16
13 13 13 13 12 11 10 10 10 11 10 10 9 9 8 8 7 6 6 5 4 3 3 3 3 4 4 4 5 7 9 10 11 10 6 5 6 5 4 5 4 3 1 3 4 4 4 5 5 4 2 3 4 4 4 4 4 4 4 4 5 6 7 7 7 7 8 9 10 10 10 10 10 10 10 10 11 11 12 13 14 14 14 14 13 13 13 12 12 13 15 17 18 18 17 15 15 14 14 14 15 16 17
14 14 13 13 12 11 11 11 11 11 11 10 9 8 8 7 7 6 6 5 5 4 3 2 2 2 3 4 4 6 9 10 10 9 7 6 7 6 5 5 3 2 2 2 3 5 5 6 6 3 4 6 6 5 4 4 4 4 4 5 6 7 8 8 8 8 8 9 10 10 10 10 10 10 10 10 11 12 12 13 14 14 14 14 13 13 13 12 13 15 17 18 18 17 16 15 15 15 15 15 17 17 18
15 14 13 13 12 12 12 11 10 10 9 8 8 8 7 7 6 6 6 5 5 5 4 4 2 1 2 3 3 5 7 9 10 9 8 7 7 6 4 3 2 2 2 3 2 4 5 5 2 3 7 8 7 6 4 4 5 5 5 5 6 8 8 8 8 8 9 10 11 11 11 11 10 10 10 11 11 12 13 13 14 14 14 14 14 13 13 13 14 16 17 18 17 16 15 15 15 15 16 17 18 19 19
15 14 13 13 13 13 12 10 9 9 9 8 8 8 7 7 6 6 6 5 5 5 5 5 4 3 2 2 2 3 5 7 9 9 8 9 7 5 3 2 2 2 2 3 2 1 2 2 6 10 11 9 6 5 5 5 5 5 6 6 8 9 9 9 9 9 9 10 11 12 11 11 11 10 11 11 11 12 13 13 14 14 14 14 14 13 13 13 14 16 16 15 14 14 14 14 15 16 17 18 19 19 20
15 14 13 13 13 13 11 10 10 10 10 10 9 8 8 7 7 7 6 6 6 6 5 5 5 5 3 2 2 3 3 5 7 8 8 9 8 6 3 2 3 3 2 2 2 2 3 5 9 11 10 6 4 5 5 6 6 6 7 8 9 10 9 9 9 9 10 11 12 12 12 12 11 11 11 11 12 12 13 13 14 14 14 14 14 14 14 14 14 14 13 13 12 13 14 15 16 17 17 18 19 20 21
15 14 14 13 13 13 12 11 11 11 11 10 10 9 9 8 8 8 7 7 7 6 6 6 6 6 5 3 2 2 2 3 5 6 6 7 8 7 5 3 2 2 2 2 2 3 3 8 8 5 5 4 5 6 7 7 8 8 9 9 10 10 10 9 9 9 11 12 12 12 12 12 12 12 12 12 12 13 13 13 13 13 14 14 14 14 14 14 13 13 12 12 13 13 14 15 16 17 17 18 19 20 22
16 15 14 14 13 13 12 12 11 11 11 11 11 11 10 9 8 8 7 7 7 6 6 6 6 6 5 4 3 2 2 3 3 3 4 5 6 7 6 5 3 3 2 2 2 3 4 7 5 3 4 6 7 7 8 9 9 9 9 10 10 10 10 10 10 11 12 13 13 13 13 12 12 13 13 13 13 13 13 13 13 13 13 14 14 14 14 13 13 13 13 13 13 14 15 16 16 16 16 18 19 21 23
16 16 15 14 13 13 12 12 12 12 12 11 11 11 10 9 8 7 7 7 6 6 6 6 5 5 5 5 4 3 3 3 3 2 2 3 4 5 5 3 3 2 2 2 2 3 4 4 3 3 4 7 8 7 7 8 9 9 9 9 10 10 10 11 12 13 13 14 14 14 13 13 13 13 13 13 13 13 13 13 13 13 13 14 14 14 13 13 13 13 13 14 14 15 16 15 15 15 16 18 21 23 25
17 16 15 14 13 12 12 13 13 13 12 12 11 10 9 8 8 8 8 7 6 6 6 6 6 5 5 5 4 3 3 4 4 3 1 1 2 3 3 2 1 1 1 1 1 2 3 2 2 3 4 5 6 8 8 8 8 9 10 10 10 10 11 12 13 14 14 14 14 14 14 14 13 13 13 13 13 13 14 14 14 14 14 14 13 13 13 13 13 14 14 14 15 15 14 14 14 15 17 20 22 25 26
17 17 15 14 13 12 12 13 13 13 12 12 11 10 10 9 9 9 8 8 7 7 6 6 6 6 6 5 5 4 4 4 4 4 3 1 2 2 2 2 1 1 2 2 2 3 3 3 3 3 3 4 5 6 7 8 9 9 10 10 10 11 12 13 13 14 14 14 13 14 14 14 14 14 13 14 14 15 15 15 15 14 14 14 13 13 13 13 14 14 14 14 14 13 13 13 15 17 19 21 24 25 26
18 17 16 14 13 12 12 13 13 13 12 12 11 11 10 10 9 8 8 7 7 6 6 6 6 6 6 6 5 5 4 3 3 4 4 3 3 3 3 2 2 3 3 3 3 4 4 4 5 4 4 3 4 5 5 7 8 10 10 10 11 12 13 13 13 13 13 13 13 14 14 14 14 14 14 15 15 16 16 16 15 15 14 14 13 13 13 13 13 13 13 13 13 13 13 15 17 19 21 23 24 25 25
Wind_Direction
117 104 83 79 85 90 87 82 78 78 80 82 80 75 64 55 46 39 35 37 39 41 41 33 23 15 12 14 18 22 25 22 17 16 25 43 40 24 6 353 335 319 312 318 349 41 40 17 352 339 350 4 5 2 8 19 15 6 2 18 33 29 8 350 344 346 355 7 15 13 3 358 353 349 343 339 336 334 328 319 308 299 293 289 287 286 287 290 289 288 289 293 295 293 287 276 266 263 266 273 276 277 277
106 90 82 86 93 95 89 83 77 73 72 72 72 70 65 59 50 43 43 43 40 35 28 19 14 13 14 22 28 35 37 30 27 27 29 38 38 30 19 2 343 331 328 352 56 68 50 25 357 339 351 4 5 5 12 17 13 6 7 29 39 26 359 350 348 352 3 10 12 7 359 354 349 344 337 330 326 324 323 319 314 308 301 296 291 288 286 288 290 293 297 303 308 311 309 303 287 266 259 265 268 269 269
97 87 85 91 96 95 90 85 79 73 68 67 67 67 64 58 51 46 48 47 44 36 20 14 17 23 29 36 38 38 38 38 34 32 37 43 39 31 24 7 351 347 360 37 65 61 44 24 354 328 344 2 8 9 12 16 10 4 11 31 29 10 355 352 351 356 6 15 10 359 354 348 342 338 332 326 321 318 316 312 309 308 306 302 298 293 290 290 291 293 297 301 305 308 312 315 312 297 276 275 277 278 273
91 86 86 92 96 95 90 85 81 76 68 64 62 61 59 54 50 47 43 39 35 32 29 33 37 39 41 41 41 38 31 42 40 34 39 45 39 28 20 7 360 8 28 41 37 23 11 356 335 320 340 1 8 9 10 13 8 3 12 29 17 1 355 353 354 359 9 14 6 354 348 342 337 333 328 323 320 320 317 313 311 310 310 308 304 299 298 297 298 297 297 297 296 298 302 307 309 305 292 288 290 291 287
89 85 85 89 93 94 90 88 86 80 71 64 59 57 55 52 52 49 41 36 37 41 43 44 45 44 43 39 41 42 31 45 48 40 33 40 34 19 12 7 14 26 33 33 23 10 358 341 331 331 351 5 7 6 5 6 2 2 18 34 20 4 358 356 359 5 12 9 1 351 346 340 338 335 331 328 329 330 331 329 326 320 314 311 308 304 301 298 297 296 295 294 293 293 294 297 299 299 294 292 293 293 290
99 93 88 89 95 98 97 92 87 82 74 68 63 59 55 54 54 52 45 45 45 46 49 46 42 41 42 35 33 35 33 36 42 37 19 25 20 8 6 13 24 29 29 27 22 15 7 352 347 352 6 10 8 4 2 357 357 6 24 31 14 2 359 359 4 9 10 4 357 349 344 343 344 343 340 339 340 341 341 340 333 321 310 307 306 305 304 301 298 295 295 294 294 294 293 293 296 298 297 294 293 292 289
116 114 106 101 106 111 109 93 83 81 79 78 74 67 58 55 54 53 52 51 50 46 45 46 39 35 40 34 25 24 30 21 23 24 12 14 11 10 18 24 28 28 26 23 20 20 19 4 355 356 7 11 12 8 359 354 359 13 26 31 13 0 358 1 7 10 5 360 355 351 346 345 345 342 340 340 342 341 337 334 322 309 304 308 308 306 307 306 305 303 300 299 297 294 290 288 291 295 296 293 291 290 289
129 133 126 114 115 121 119 107 100 99 102 99 86 73 64 59 54 51 52 52 47 41 39 46 39 32 35 30 23 22 31 27 24 26 28 28 27 29 32 32 30 26 22 18 16 16 20 14 359 353 4 9 10 7 358 354 3 21 35 30 14 1 358 3 8 8 2 353 350 349 346 342 338 335 333 335 334 331 327 320 310 304 310 315 312 305 302 302 301 300 300 302 301 297 290 285 284 285 286 288 290 290 287
140 139 129 122 123 128 131 129 124 122 121 115 91 69 59 63 55 46 49 52 52 45 32 38 37 30 25 25 26 29 37 41 42 43 44 43 42 42 40 35 28 22 16 13 12 12 16 18 4 355 7 7 6 6 3 1 9 22 29 20 8 360 359 6 9 5 360 352 347 343 339 339 336 332 330 329 325 321 320 316 318 322 327 324 319 313 310 311 310 309 313 317 316 311 303 296 291 288 290 295 297 294 288
138 135 131 130 132 134 137 136 136 137 137 125 94 60 45 61 64 55 46 44 53 53 36 34 35 34 28 29 34 41 47 50 51 50 48 46 44 42 38 32 24 18 13 12 12 14 19 22 7 354 9 12 13 13 11 10 15 21 23 12 4 2 3 9 8 2 357 351 345 340 336 335 332 329 328 324 317 314 321 326 331 335 336 333 331 332 336 339 339 340 341 336 332 330 328 325 319 313 308 307 305 302 298
134 135 134 135 136 135 132 128 128 132 139 133 119 95 68 77 80 74 57 42 41 47 46 39 42 44 41 42 44 48 51 50 47 42 38 35 33 31 29 25 22 18 15 12 14 17 21 18 6 2 12 17 20 19 17 19 23 23 15 6 3 4 8 9 5 359 355 350 345 341 337 335 330 327 325 324 320 318 327 334 336 337 336 338 340 342 344 347 347 346 343 337 332 329 329 329 324 318 314 308 306 307 310
135 136 137 137 133 126 118 111 107 110 118 121 116 109 101 97 89 77 65 58 57 58 58 54 53 51 49 48 47 47 44 38 32 27 22 19 17 16 16 17 17 16 14 11 13 19 20 8 5 11 15 19 23 23 22 23 27 21 7 1 0 4 8 6 2 355 351 348 346 343 339 335 331 329 329 334 336 334 333 332 332 333 336 339 341 341 340 341 341 338 333 331 324 316 314 313 312 311 312 312 312 314 317
142 142 140 136 126 115 106 100 98 99 100 96 94 97 104 102 90 78 72 71 74 73 66 61 56 52 47 44 40 37 32 27 21 16 12 10 8 7 7 9 10 10 7 6 11 15 10 4 8 14 14 16 19 22 23 24 20 8 358 356 358 2 5 2 357 351 348 347 345 344 342 340 340 340 342 348 352 351 344 336 333 335 339 342 342 341 339 339 337 333 327 322 316 311 309 308 308 308 311 316 320 322 321
150 146 142 133 123 113 105 100 97 97 97 90 85 86 93 97 94 88 84 81 77 73 66 59 51 42 35 27 23 21 20 19 17 14 10 7 4 3 3 3 3 3 5 7 7 5 1 6 11 14 13 13 14 18 23 23 6 353 351 352 355 358 2 358 352 348 347 346 345 345 344 343 345 348 350 353 354 353 349 342 339 340 343 346 345 342 338 335 333 331 330 325 319 316 317 315 311 309 310 312 314 316 315
155 150 145 136 127 117 109 103 100 98 95 91 89 87 90 94 94 90 87 82 78 70 60 49 38 30 21 13 6 5 9 12 14 12 9 4 1 360 360 360 1 4 11 12 5 359 6 11 13 13 12 11 10 14 20 18 355 343 346 349 352 356 358 354 348 346 345 345 346 346 347 347 348 351 353 352 351 350 348 345 343 344 349 354 352 345 335 325 318 321 335 335 326 321 321 321 319 317 316 312 310 309 308
159 155 150 143 132 123 113 105 100 97 95 94 94 96 99 99 98 93 87 80 71 60 47 36 29 24 19 13 7 3 7 9 10 10 7 3 359 356 356 359 5 13 20 9 1 2 7 10 12 12 9 8 8 13 19 2 341 337 343 346 349 353 355 350 347 345 345 346 348 350 352 354 355 356 356 356 356 354 352 350 351 352 355 357 357 354 345 330 319 318 326 329 324 320 321 321 322 324 323 318 316 313 311
167 162 156 147 137 125 115 107 100 96 95 97 101 106 108 107 102 95 84 72 58 44 33 25 22 21 19 18 15 12 13 11 7 6 4 1 359 358 359 4 13 20 19 6 2 3 4 6 7 6 2 1 4 11 15 337 330 335 340 342 346 351 353 350 347 346 347 349 352 355 357 360 1 1 1 1 1 1 1 1 3 1 353 352 1 6 359 348 339 333 330 330 328 326 328 328 329 330 330 329 326 322 319
177 167 159 148 137 126 116 107 100 97 97 102 107 112 112 110 103 90 72 55 39 26 19 15 14 16 19 23 25 22 13 9 5 2 359 358 360 3 8 13 17 17 8 4 1 359 359 360 1 359 355 355 360 6 356 322 325 333 335 338 345 352 355 353 351 351 352 355 358 360 3 5 5 4 4 4 6 7 9 11 11 6 355 3 13 15 8 358 353 350 346 346 348 348 349 350 350 348 345 345 341 336 331
177 167 158 146 135 125 117 108 98 94 95 103 109 113 113 108 95 76 53 36 24 16 12 9 11 16 21 26 25 13 2 2 6 3 357 355 360 8 15 15 9 2 359 358 356 354 354 353 353 351 348 349 359 3 333 319 324 331 330 335 346 357 1 1 360 360 1 3 5 8 10 9 7 5 5 6 7 11 15 20 18 16 16 21 22 19 13 3 1 2 1 4 7 8 9 9 9 8 5 2 359 357 354
167 161 155 146 136 125 118 107 98 90 92 104 113 118 120 108 72 43 29 23 21 16 12 11 16 23 26 24 14 3 3 2 3 1 358 355 360 7 11 5 359 355 353 351 350 350 349 348 347 345 345 345 359 360 320 318 323 326 324 330 348 4 10 11 11 11 13 14 15 15 16 14 10 7 7 8 9 13 21 27 29 31 34 32 29 24 19 14 12 12 14 17 19 17 15 15 16 16 16 15 13 12 11
158 157 154 150 143 133 124 117 106 103 100 91 114 160 147 86 22 15 15 18 22 22 20 22 24 23 20 14 12 12 10 7 4 1 360 358 360 4 4 359 354 351 347 347 347 348 348 347 347 345 344 344 360 358 319 317 320 321 317 323 346 11 21 23 22 22 23 24 22 20 18 17 16 13 11 11 12 16 23 31 35 36 36 37 36 33 29 30 28 25 24 24 25 23 18 16 17 18 18 19 19 19 18
169 168 162 157 150 145 139 137 136 122 101 81 121 145 139 100 41 34 37 37 36 33 30 33 25 12 9 10 13 15 12 8 4 1 1 359 359 1 1 356 352 348 346 347 348 349 349 349 349 348 347 350 8 354 312 314 317 316 308 311 337 18 34 34 32 30 30 30 27 23 21 20 20 18 17 17 18 21 26 31 34 36 35 35 36 35 34 34 33 31 28 27 26 23 20 17 17 17 17 18 18 19 19
184 178 170 162 155 151 148 149 149 141 107 94 135 153 139 124 107 96 88 76 69 64 53 40 30 21 13 13 16 17 15 12 8 3 360 359 358 357 354 351 349 349 347 351 351 351 351 350 350 350 351 2 22 345 303 313 315 311 298 294 304 23 47 44 39 35 34 34 32 28 26 24 22 21 21 21 23 26 29 31 31 33 33 29 28 28 27 25 25 25 24 22 21 19 17 16 14 13 12 11 12 12 11
186 181 173 167 161 158 158 158 157 155 150 150 167 172 146 132 123 118 115 70 59 68 51 37 31 28 22 23 25 19 12 10 8 5 2 358 354 351 348 349 351 352 350 353 354 354 353 352 353 352 352 11 19 324 303 313 315 305 289 277 269 280 60 55 46 40 37 37 36 34 31 27 25 24 24 24 25 27 29 29 28 27 27 22 18 17 18 16 15 15 15 15 14 11 10 8 7 5 4 3 2 1 359
183 179 169 165 163 161 162 161 160 158 159 163 170 166 144 122 111 109 252 8 37 55 43 35 28 24 26 33 26 10 1 1 1 356 347 352 353 351 351 353 355 355 354 354 354 356 356 355 353 352 350 11 12 323 309 315 314 300 282 269 260 251 201 68 54 44 39 38 37 36 34 31 28 26 25 25 24 24 25 25 23 21 19 14 8 6 10 8 7 7 8 8 7 4 2 0 359 358 356 355 354 352 351
175 168 159 158 158 156 155 153 151 145 140 137 138 140 135 116 108 92 324 51 64 63 51 28 27 34 36 37 25 10 358 359 358 351 345 344 352 358 357 357 357 358 356 355 355 356 358 355 351 348 348 4 22 343 316 316 311 297 280 269 263 256 247 169 65 50 41 38 37 36 34 32 29 26 22 24 24 22 19 15 14 14 10 4 1 2 4 1 359 360 2 2 1 359 356 354 351 350 349 350 349 347 346
162 154 151 149 147 147 146 143 137 130 121 117 115 113 111 106 97 78 78 98 101 89 49 26 29 33 33 28 24 16 3 1 354 349 348 349 353 359 360 357 356 357 356 356 358 358 356 352 348 344 344 351 28 5 322 315 308 295 282 273 268 264 260 250 235 52 43 38 35 33 31 28 25 21 19 22 21 17 14 6 7 8 4 360 360 1 358 354 352 353 354 355 355 354 351 349 347 346 345 345 345 344 344
152 150 156 152 146 143 141 136 130 124 118 111 106 102 97 89 88 92 113 152 157 67 7 359 9 15 12 8 11 10 360 358 352 349 354 354 356 359 2 356 353 353 354 353 354 354 353 351 345 340 340 343 21 14 324 313 306 297 285 280 275 272 269 264 259 274 32 32 31 28 26 22 19 15 11 8 6 5 7 5 4 3 359 358 357 357 355 349 347 347 348 347 347 346 345 344 343 341 339 338 339 340 339
149 153 160 158 152 145 138 133 121 119 132 129 113 104 117 102 104 131 186 252 31 33 27 21 9 2 4 7 6 360 354 352 351 354 358 359 357 358 2 354 348 347 347 348 347 347 348 348 344 340 337 338 345 9 359 321 310 301 290 285 281 279 276 274 271 270 291 2 16 18 17 15 12 9 7 5 4 3 2 358 357 356 350 344 346 350 350 346 342 340 339 338 338 338 337 336 335 334 333 333 334 334 335
151 158 164 160 152 143 134 121 120 133 151 124 106 101 126 157 176 181 64 40 37 39 42 38 29 18 8 8 7 355 340 348 355 356 358 358 356 355 355 351 346 343 342 339 337 335 338 340 340 338 336 335 334 356 29 332 317 304 294 289 286 284 283 283 281 279 281 304 337 355 359 3 2 360 358 358 359 359 360 354 347 343 340 342 344 345 344 340 335 332 331 331 330 330 330 331 332 332 331 330 330 330 328
154 162 166 160 147 134 123 115 121 134 126 106 106 116 126 154 168 135 77 52 45 43 40 39 33 24 11 9 359 342 331 352 358 355 354 353 351 350 349 346 342 338 336 332 327 327 329 333 337 337 334 331 329 341 26 348 328 312 302 296 292 290 290 290 290 290 289 295 314 332 340 344 345 344 343 345 346 348 348 340 335 333 335 339 340 338 336 336 335 332 330 328 326 325 325 327 327 327 326 324 323 322 321
157 166 168 159 143 130 123 121 113 117 135 138 150 163 171 171 154 120 108 114 88 55 45 35 22 12 12 15 2 348 346 359 359 349 345 345 345 344 343 342 339 334 329 325 319 320 328 334 336 337 336 330 320 308 309 17 347 327 316 306 301 298 298 300 301 303 303 306 314 324 330 332 330 329 327 332 338 338 335 333 334 334 331 332 332 330 330 330 328 326 325 325 323 322 321 321 321 321 320 319 319 320 321
161 168 167 153 139 131 129 129 140 157 172 176 176 176 180 180 172 181 223 233 247 262 275 313 332 349 11 12 2 353 354 356 353 344 337 335 337 338 337 338 335 329 324 317 313 314 324 328 330 332 333 332 324 313 302 316 357 341 326 317 310 308 309 311 316 320 322 323 323 325 326 326 326 324 323 328 333 334 331 330 330 331 332 329 327 326 325 324 324 323 322 322 321 320 320 319 319 319 320 320 320 321 320
165 168 161 150 140 134 133 139 154 170 179 180 178 175 173 185 217 250 290 328 345 353 356 355 358 3 8 7 2 358 355 352 348 340 329 328 328 329 331 330 329 324 319 312 308 309 309 308 313 322 331 332 331 328 324 349 24 355 332 323 319 318 318 321 327 333 335 334 332 330 328 327 326 325 323 324 328 330 329 328 328 329 329 327 326 325 324 323 323 322 321 321 320 319 319 318 319 320 320 320 318 317 316
166 165 155 148 144 144 146 155 166 173 176 174 170 164 146 92 42 37 39 41 44 42 29 27 26 24 19 14 6 358 350 349 345 335 327 325 324 324 326 324 323 321 316 309 306 305 299 293 299 312 326 332 331 329 338 357 7 349 332 329 329 328 327 326 330 336 340 341 339 337 333 331 329 328 328 328 329 330 328 327 327 326 325 324 324 324 323 322 322 321 320 319 318 318 317 317 317 317 317 315 314 314 314
166 161 153 156 164 169 166 165 166 168 167 162 153 124 84 70 67 69 74 76 76 66 37 26 25 25 22 16 8 359 349 347 342 331 327 325 322 320 319 321 322 320 313 307 305 300 290 286 288 301 317 325 330 333 335 339 333 329 332 338 341 342 341 336 333 334 338 341 341 340 338 335 333 332 331 331 330 329 327 326 324 323 321 321 321 321 321 321 320 319 319 318 317 317 316 316 315 315 314 313 313 314 313
164 160 164 175 179 176 168 164 163 163 161 155 140 112 91 87 89 91 90 84 75 61 43 28 15 14 21 14 6 357 348 349 343 333 329 327 323 320 318 319 319 317 308 304 300 294 285 278 272 277 294 326 337 327 328 328 321 318 319 332 347 354 357 351 341 336 335 337 338 338 338 337 335 334 332 332 331 330 329 327 325 323 322 320 319 320 320 320 319 318 318 318 317 316 315 315 315 314 314 314 313 313 312
160 163 177 183 181 173 163 161 163 165 165 161 147 126 112 109 108 104 92 80 71 60 45 40 22 13 18 13 5 354 347 351 346 336 331 328 324 321 319 318 314 309 301 298 295 291 280 268 256 246 250 275 302 304 313 320 316 317 319 328 338 349 357 360 350 342 337 335 333 332 333 335 336 335 334 333 333 332 331 329 328 327 325 322 320 319 319 319 318 318 317 317 316 316 315 315 314 314 313 313 313 312 311
160 162 171 171 166 161 160 164 169 173 172 162 144 129 124 117 110 106 104 91 88 71 46 27 13 9 15 11 2 351 351 353 345 335 329 325 322 320 320 316 308 300 293 295 295 288 274 258 240 222 204 194 217 280 296 305 316 325 331 338 344 351 349 347 343 340 339 334 329 328 329 332 335 337 338 338 337 336 335 333 332 332 331 329 325 322 319 318 318 318 317 315 315 315 315 315 314 314 314 313 313 312 311
165 162 159 158 157 160 167 173 174 172 163 141 130 129 131 116 102 93 85 79 82 83 70 44 13 359 6 6 358 350 351 350 342 332 325 321 319 318 317 312 304 293 288 295 292 279 266 249 233 218 196 184 189 267 276 288 310 330 332 336 335 330 322 326 328 331 333 329 325 324 325 330 335 339 341 342 342 340 338 336 335 336 337 335 333 329 325 321 319 318 317 315 315 316 315 316 316 315 315 314 313 312 312
167 165 161 160 164 170 175 173 167 154 138 130 131 133 127 111 97 90 82 74 63 57 65 71 36 10 5 5 356 347 345 341 336 329 322 317 315 315 315 310 300 289 281 287 286 275 261 245 230 218 200 199 218 240 252 272 301 319 315 318 303 298 303 315 323 327 328 328 325 322 323 329 335 341 343 344 343 341 338 335 335 336 337 337 336 334 330 326 322 319 317 316 316 316 317 318 318 317 316 315 314 312 313
168 168 167 169 173 176 173 163 148 136 131 132 134 132 122 108 99 93 88 80 67 54 46 54 53 36 12 3 356 350 342 337 332 327 321 315 311 312 313 308 299 289 280 278 276 271 259 240 225 214 207 218 228 229 229 255 283 294 294 288 287 296 307 322 328 329 329 329 329 326 323 329 336 341 342 342 341 339 335 333 333 333 334 335 334 333 330 327 324 321 319 317 317 318 319 319 319 318 317 317 316 314 313
168 171 174 176 176 173 163 150 141 137 137 136 135 131 123 113 105 99 90 83 76 66 50 45 49 49 28 9 359 353 344 337 332 327 322 315 311 310 312 308 301 290 280 275 272 268 258 236 220 214 219 228 231 228 228 247 271 280 275 268 278 295 312 324 330 331 332 332 331 328 326 331 337 340 340 339 338 336 333 330 329 330 330 330 330 329 327 326 324 323 321 320 320 320 321 321 320 319 319 318 317 316 314
172 176 178 176 170 163 154 148 146 144 141 134 131 128 122 113 106 98 90 84 84 81 65 45 45 48 41 22 6 357 348 339 332 326 322 317 312 309 309 306 300 291 280 275 272 268 255 232 222 223 227 229 232 235 245 253 273 280 271 258 263 285 307 320 328 332 332 331 330 328 328 334 337 338 337 336 336 334 330 327 325 325 325 325 325 324 323 323 322 322 321 321 322 322 322 322 321 320 319 318 317 316 314
175 176 172 166 160 154 151 154 153 148 139 131 124 118 113 108 102 96 90 84 82 81 73 54 45 44 44 34 18 2 351 340 331 325 321 316 310 305 302 300 296 289 278 272 271 262 242 223 220 223 224 226 233 245 256 262 281 285 273 256 256 276 299 314 324 329 329 328 327 326 329 334 336 336 334 334 333 331 328 323 320 320 320 320 320 320 320 320 320 321 321 321 321 322 323 323 322 321 320 319 318 317 316
170 165 159 155 153 153 154 158 155 146 136 127 118 113 111 108 104 99 93 85 77 71 66 61 55 48 43 38 27 9 355 344 334 326 318 312 307 300 294 292 289 282 266 261 259 243 218 209 207 207 210 220 238 253 263 271 291 295 275 259 259 271 290 304 316 323 325 325 324 325 329 333 334 333 332 331 330 328 325 321 319 317 317 317 317 316 318 318 318 318 319 319 320 322 322 323 322 322 321 320 319 319 318
159 154 152 151 152 153 154 154 149 141 129 120 115 113 112 109 104 99 93 86 78 71 65 56 53 52 47 40 29 15 1 351 341 330 320 314 308 302 294 288 281 269 239 216 214 211 200 196 193 192 199 221 255 271 275 281 291 295 285 279 277 281 290 302 311 318 322 322 323 325 329 330 331 331 330 330 329 327 325 323 321 319 318 316 315 315 316 316 316 316 316 318 319 321 322 323 323 322 322 321 321 320 320
153 151 151 151 150 149 148 147 144 135 124 118 115 113 110 107 103 100 96 92 84 77 71 60 46 36 40 38 28 17 6 358 349 336 322 318 315 310 302 290 276 253 213 187 180 187 188 191 190 186 189 234 299 303 297 295 294 295 297 299 297 296 298 304 310 315 317 318 321 324 326 327 327 328 328 328 327 327 326 325 323 321 319 316 316 316 315 314 314 314 314 316 318 320 322 322 323 322 322 322 322 322 321
153 152 150 149 147 144 143 145 143 138 131 124 119 116 115 115 110 104 98 93 87 78 71 66 54 43 39 38 28 18 10 3 356 346 329 326 328 327 323 308 280 240 204 194 190 183 181 188 190 190 193 304 322 318 312 307 304 302 303 308 306 304 304 306 308 311 313 316 319 321 322 323 324 325 324 325 325 326 326 326 324 322 319 318 317 316 316 315 313 313 312 313 315 318 321 323 323 323 323 323 323 323 322
154 151 149 146 144 143 142 145 146 142 137 132 127 123 119 113 106 99 92 88 83 78 74 66 59 53 48 47 35 21 13 8 3 357 346 347 346 340 335 324 298 244 198 189 183 177 175 189 195 199 228 310 321 318 312 307 303 301 303 308 309 309 307 306 306 308 310 314 317 318 319 320 320 320 320 320 321 323 325 325 324 322 320 318 318 317 315 314 313 311 309 311 315 319 322 324 324 323 323 323 323 323 322
155 150 147 145 143 142 143 147 147 142 135 129 123 116 110 106 101 96 90 84 78 74 72 70 67 64 63 62 49 31 20 16 12 9 4 357 347 335 322 317 307 286 246 187 175 174 184 200 204 211 265 316 320 315 308 303 297 294 295 302 307 308 307 305 304 305 308 312 314 315 315 316 316 315 315 315 317 320 322 323 323 321 319 318 317 316 314 313 311 308 307 311 317 322 324 325 324 323 323 323 323 322 322
153 151 148 145 143 143 145 146 142 136 130 124 119 115 111 106 100 94 87 80 71 62 57 56 64 77 80 80 67 45 29 24 21 18 11 351 335 322 309 303 301 311 329 278 192 175 189 198 200 222 308 320 318 311 304 296 289 285 287 295 301 305 304 302 301 303 306 309 312 312 312 312 311 310 309 310 312 315 318 320 320 320 318 316 314 313 312 311 308 306 308 314 320 324 324 323 323 322 322 322 322 322 322
152 151 150 147 145 145 144 139 136 132 129 126 122 117 112 105 100 94 88 81 72 63 57 46 37 48 89 88 76 55 37 30 27 24 17 357 340 329 323 314 316 336 338 308 249 176 173 178 199 322 323 319 312 303 294 288 284 282 285 292 299 302 302 299 298 300 304 307 309 310 309 308 306 305 305 306 308 310 313 316 317 318 317 315 313 311 310 308 306 307 311 317 322 323 321 320 320 320 320 321 322 322 322
150 150 151 150 147 144 139 136 135 134 131 126 120 116 110 104 98 93 87 81 74 67 59 47 36 30 43 65 73 67 53 35 29 28 23 15 3 351 345 349 334 312 301 289 276 225 140 54 350 329 317 311 303 294 288 287 288 289 291 295 299 300 298 296 295 297 301 304 307 307 306 304 302 301 301 302 304 306 309 312 314 315 314 313 311 309 308 307 306 308 312 317 319 318 315 315 316 317 319 320 321 322 322
149 151 152 150 147 142 139 138 138 137 133 127 120 114 110 105 98 92 86 80 74 68 63 54 44 38 36 37 53 71 70 48 35 30 30 28 25 16 354 333 314 299 281 255 280 336 13 1 338 321 309 308 308 303 301 302 302 301 299 298 297 296 295 293 293 295 299 303 304 304 302 300 299 299 299 299 300 301 304 306 309 311 312 311 309 307 306 305 306 308 310 311 311 309 308 310 313 315 317 319 321 322 322
149 149 149 147 144 142 141 140 139 137 134 129 124 119 115 108 102 95 89 82 75 70 67 62 54 46 41 34 33 49 69 66 44 34 37 35 35 32 17 358 342 338 332 336 350 3 360 339 327 308 306 326 328 318 311 310 308 304 300 297 295 295 294 292 292 294 298 302 303 302 299 298 298 297 297 297 297 297 299 301 304 306 308 308 307 305 304 304 304 305 305 306 306 306 305 307 310 313 316 318 320 321 321
148 146 144 143 143 142 141 140 138 136 133 129 126 122 116 109 102 95 89 82 77 72 69 67 60 51 44 37 29 29 46 61 59 49 44 44 41 38 36 28 18 4 354 354 352 341 331 327 317 294 310 322 320 313 310 308 305 301 299 298 298 299 298 297 297 297 299 301 301 300 298 297 296 296 295 295 295 296 296 298 299 301 303 304 303 302 301 300 300 301 302 303 304 304 304 307 310 313 315 317 318 319 319
146 142 140 141 143 143 142 140 137 134 130 126 122 118 113 107 101 96 91 85 80 75 72 70 65 56 46 38 32 33 41 39 39 47 65 68 52 41 39 44 48 38 8 350 329 323 319 316 311 310 318 314 311 310 312 309 305 302 301 301 301 302 302 301 301 300 300 299 299 298 297 296 294 294 294 293 293 294 295 296 296 297 298 298 298 297 296 296 296 297 298 299 300 302 303 306 309 312 314 315 317 317 317
143 139 138 139 142 143 141 138 134 130 126 122 118 115 111 108 106 104 100 95 88 82 76 72 69 63 51 40 37 44 51 42 27 12 17 99 69 43 26 26 28 26 356 291 286 298 307 313 323 327 320 314 314 315 315 309 305 304 303 302 302 302 302 302 301 300 298 297 297 297 297 296 294 293 292 292 293 294 295 295 295 294 294 293 293 292 292 292 293 294 295 297 298 300 303 306 308 311 312 314 315 315 315
141 137 135 138 141 141 138 134 130 126 123 121 118 116 115 113 111 108 103 98 94 88 82 77 74 69 61 50 46 48 52 50 32 14 2 6 33 26 2 342 327 318 294 268 255 256 269 280 297 314 319 315 314 314 313 310 308 305 303 303 304 305 304 302 301 299 298 297 297 297 297 296 295 294 292 292 293 293 294 294 292 291 290 289 288 288 289 290 291 293 295 296 298 301 304 306 308 309 311 312 313 313 312
140 137 135 137 140 140 136 132 128 125 123 122 120 118 116 114 111 108 105 101 96 91 85 81 76 71 65 62 56 51 51 50 41 28 15 6 2 358 343 333 323 313 294 278 265 258 257 261 267 276 288 298 303 303 305 309 311 310 306 306 308 308 306 303 301 300 299 300 300 299 298 297 295 294 293 292 292 292 292 290 289 287 286 285 285 286 287 289 291 292 294 296 298 301 304 305 306 307 309 310 310 310 310